Stove Prairie

Current Conditions

Time: 02/23/2019 08:00 PM MST
Location: 105° 21' 25'' W40° 37' 9'' N
Elevation: 7,349 FT

Air Temperature: 20°F
Surface Temperature: 20°F
Dew Point Temperature: -0°F
Relative Humidity: 40%
Visibility: 6,562 FT
Pressure: 772 MB
Precipitation: None

Click a photo to enlarge.

300°5 mph
Wind from @ 5 mph

Past 24 Hours

Previous 24h observations for Stove Prairie
Time Surface
(°F)
Air Temp
(°F)
Dew Point
(°F)
Relative
Humidity
Precip. Wind Direction Wind Speed (mph) Visibility (ft) Pressure
(mb)
08:00 PM2020-040NoneWNW56,562772
07:45 PM2120-140NoneWNW76,562772
07:30 PM2120-139NoneW56,562772
07:15 PM2120-236NoneNW56,562772
07:00 PM2221-334NoneNW66,562772
06:45 PM2321-334NoneNW56,562772
06:30 PM2321-137NoneNNW76,562772
06:15 PM2421-137NoneNW76,562771
06:00 PM2521-137NoneNW96,562771
05:45 PM2621-137NoneNW86,562771
05:30 PM2622-136NoneNW106,562771
05:15 PM2722-135NoneNW96,562771
05:00 PM2823-233NoneNW106,562771
04:45 PM2924-231NoneNW106,562770
04:30 PM3224-133NoneNNW86,562770
04:15 PM3024-231NoneNNW96,562770
04:00 PM3325-131NoneN86,562770
03:45 PM3326-230NoneNNW106,562770
03:30 PM3525-131NoneNNW96,562770
03:15 PM3926-131NoneNNW86,562770
03:00 PM3827-031NoneNNW116,562769
02:45 PM4127-130NoneNW76,562769
02:30 PM4426-131NoneNW56,562769
02:15 PM4927-129NoneNW146,562769
02:00 PM5727-128NoneNNW126,562769
01:45 PM5927-228NoneNNW96,562768
01:30 PM5827-228NoneNW106,562768
01:15 PM5927-129NoneNW96,562768
01:00 PM5627-129NoneNNW136,562768
12:45 PM5728-128NoneNNW116,562768
12:30 PM5528-228NoneNW126,562767
12:15 PM5427-227NoneNW126,562767
12:00 PM5327-227NoneNNW126,562767
11:45 AM5128-326NoneNNW136,562767
11:30 AM4828-227NoneNNW116,562767
11:15 AM4727-426NoneNNW136,562767
11:00 AM4727-524NoneNNW116,562767
10:45 AM4426-525NoneN96,562767
10:30 AM4227-624NoneNNW96,562767
10:15 AM3926-623NoneNNW96,562767
10:00 AM3827-524NoneNNW76,562767
09:45 AM3527-722NoneNNW96,562766
09:30 AM3125-1020NoneNNW76,562766
09:15 AM2924-1120NoneN96,562766
09:00 AM2624-1219NoneNNW56,562766
08:45 AM2624-1021NoneN76,562767
08:30 AM2425-1021NoneNNW46,562766
08:15 AM2124-1417NoneNNW96,562766
08:00 AM1922-925NoneNNW46,562766
07:45 AM1620-927NoneN26,562766
07:30 AM1520-1026NoneNNW36,562766
07:15 AM1418-929NoneNNW46,562766
07:00 AM1318-929Light SnowNNW76,562766
06:45 AM1319-929NoneNNW66,562766
06:30 AM1319-927Light SnowNNW96,562766
06:15 AM1419-1026Light SnowN96,562766
06:00 AM3219-829NoneN46,562766
05:45 AM3219-731NoneNNW36,562766
05:30 AM1419-631Light SnowNNW56,562766
05:15 AM1519-534NoneN56,562765
05:00 AM1519-435Light SnowNNW66,562765
04:45 AM1618-143NoneN36,562765
04:30 AM1718145NoneN36,562765
04:15 AM1818146Light SnowNNW76,562765
04:00 AM1918351Light SnowNNW56,562765
03:45 AM2018453Light SnowNNW76,562766
03:30 AM2018558Light SnowNNW76,562766
03:15 AM2218967Light SnowN56,562766
03:00 AM22181174Light SnowNNW46,562766
02:45 AM22171178NoneN36,562766
02:30 AM21171282NoneNNW26,562766
02:15 AM22181382NoneN06,562766
02:00 AM21161387NoneN26,562766
01:45 AM21161285NoneN36,562766
01:30 AM22191479NoneNNE26,562766
01:15 AM23201581NoneN06,562767
01:00 AM23201581NoneN06,562767
12:45 AM23191482NoneSSE26,562767
12:30 AM23191482NoneSSE46,562767
12:15 AM23191482NoneS26,562767
12:00 AM22191583NoneN06,562767
11:45 PM22181484NoneS45,476767
11:30 PM22181382NoneSSE56,562767
11:15 PM22181483NoneNNW26,562766
11:00 PM23181586NoneN06,562766
10:45 PM22181482NoneNNE26,562766
10:30 PM22181484NoneN26,562766
10:15 PM23201581NoneNW16,562766
10:00 PM23191583Light SnowSW16,562766
09:45 PM23201684Light SnowS46,562767
09:30 PM23201684NoneSSW26,562767
09:15 PM23201684NoneS66,562766
09:00 PM24211784NoneS56,562767
08:45 PM24201684NoneN06,562766
08:30 PM24201685NoneNW26,562766

Red Feather Lakes

Current Conditions

Time: 02/23/2019 08:00 PM MST
Location: 105° 34' 27'' W40° 47' 25'' N
Elevation: 8,238 FT

Air Temperature: 14°F
Surface Temperature: 15°F
Dew Point Temperature: -0°F
Relative Humidity: 51%
Visibility: 6,562 FT
Pressure: 745 MB
Precipitation: None

Click a photo to enlarge.

277°25 mph
Wind from @ 25 mph

Past 24 Hours

Previous 24h observations for Red Feather Lakes
Time Surface
(°F)
Air Temp
(°F)
Dew Point
(°F)
Relative
Humidity
Precip. Wind Direction Wind Speed (mph) Visibility (ft) Pressure
(mb)
08:00 PM1514-051NoneW256,562745
07:45 PM1614-051Light SnowWNW226,562745
07:30 PM1614-151NoneWNW196,562745
07:15 PM1713-151Light SnowW226,562745
07:00 PM1714-249NoneWNW186,562745
06:45 PM1814-249NoneWNW186,562745
06:30 PM1914-150NoneW226,562745
06:15 PM2014-152NoneW226,562745
06:00 PM2114-053NoneW226,562744
05:45 PM2214-151NoneW246,562744
05:30 PM2415-149NoneW266,562744
05:15 PM2515-149NoneW246,562744
05:00 PM2715-147NoneW236,562744
04:45 PM2916-245NoneW226,562744
04:30 PM3418-142NoneWNW196,562744
04:15 PM3619-141NoneNW176,562744
04:00 PM3819-141NoneNW186,562743
03:45 PM4019-141NoneNW206,562743
03:30 PM4119-141NoneWNW186,562743
03:15 PM4219-141NoneNW236,562743
03:00 PM4320-139NoneWNW276,562743
02:45 PM4420-140NoneWNW226,562743
02:30 PM4520-138NoneNW216,562742
02:15 PM4620-139NoneWNW246,562742
02:00 PM4619-139NoneWNW196,562742
01:45 PM4619-139NoneWNW216,562742
01:30 PM4619-239NoneNW216,562742
01:15 PM4519-140NoneWNW266,562742
01:00 PM4519-337NoneNW226,562742
12:45 PM4419-338NoneNW196,562742
12:30 PM4218-338NoneNW266,562742
12:15 PM4118-338NoneWNW346,562742
12:00 PM4119-238NoneWNW326,562741
11:45 AM4020-138NoneWNW346,562741
11:30 AM3920-336NoneWNW246,562741
11:15 AM3720-335NoneWNW286,562741
11:00 AM3620-433NoneWNW216,562741
10:45 AM3219-534NoneWNW286,562741
10:30 AM3119-631NoneNW256,562741
10:15 AM2819-731NoneNW236,562741
10:00 AM2718-733NoneNW256,562741
09:45 AM2719-829NoneNW176,562740
09:30 AM2819-731NoneNW226,562740
09:15 AM2319-829NoneWNW216,562740
09:00 AM2016-1326NoneN136,562740
08:45 AM1815-1328NoneNNE176,562740
08:30 AM1514-1230NoneN146,562740
08:15 AM1515-1327NoneN66,562740
08:00 AM1315-1229NoneN106,562740
07:45 AM1415-1228NoneNNW106,562740
07:30 AM1313-935NoneNE46,562740
07:15 AM1113-935NoneWSW206,562740
07:00 AM1113-838NoneWSW156,562740
06:45 AM1113-936NoneWSW216,562740
06:30 AM1211-1234NoneWNW76,562740
06:15 AM1211-1430NoneSSE36,562740
06:00 AM1112-1429NoneESE46,562740
05:45 AM1112-1429NoneNE46,562740
05:30 AM1012-1233NoneNE76,562740
05:15 AM1013-1330NoneNE136,562739
05:00 AM1013-1429NoneN156,562739
04:45 AM1114-1526NoneNW166,562739
04:30 AM1213-1428NoneNW156,562739
04:15 AM1214-1427NoneNW166,562739
04:00 AM1314-1229NoneNW166,562739
03:45 AM1315-1230NoneNW156,562739
03:30 AM1415-932NoneNW216,562739
03:15 AM1415-736NoneNW206,562739
03:00 AM1515-638NoneNW136,562739
02:45 AM1615-638NoneNW136,562739
02:30 AM1715-443NoneWNW166,562740
02:15 AM1715-148NoneWNW176,562740
02:00 AM1917354NoneWNW96,562740
01:45 AM2018454NoneNW86,562740
01:30 AM2216561NoneNW86,562740
01:15 AM2115976NoneW46,562740
01:00 AM22151079NoneWNW36,562740
12:45 AM22151081NoneW46,562740
12:30 AM22131085NoneNNW36,562740
12:15 AM2014879NoneSW46,562740
12:00 AM22151186NoneSE26,562740
11:45 PM2115978NoneN06,562740
11:30 PM21151181NoneNE16,562740
11:15 PM21151184NoneE26,562740
11:00 PM22161181NoneESE36,562739
10:45 PM21181073NoneN06,562740
10:30 PM20171074NoneENE26,562739
10:15 PM22181072NoneSSE26,562739
10:00 PM23191069NoneWNW26,562740
09:45 PM23181173NoneW56,562740
09:30 PM23191066NoneWSW46,562740
09:15 PM2319966NoneWSW46,562740
09:00 PM2319963NoneW66,562740
08:45 PM2419967NoneW76,562740
08:30 PM24191276NoneWSW56,562740

Pinewood Reservoir

Current Conditions

Time: 02/23/2019 08:01 PM MST
Location:
Elevation: FT

Air Temperature: 24°F
Surface Temperature: 22°F
Dew Point Temperature: 2°F
Relative Humidity: 37%
Visibility: 6,562 FT
Pressure: 787 MB
Precipitation: None

Click a photo to enlarge.

243°44 mph
Wind from @ 44 mph

Past 24 Hours

Previous 24h observations for Pinewood Reservoir
Time Surface
(°F)
Air Temp
(°F)
Dew Point
(°F)
Relative
Humidity
Precip. Wind Direction Wind Speed (mph) Visibility (ft) Pressure
(mb)
08:01 PM2224237NoneWSW446,562787
07:45 PM2224238NoneWSW346,562787
07:31 PM2223239NoneWSW346,562787
07:16 PM2223240NoneWSW336,562787
07:00 PM2323137NoneWSW306,562788
06:46 PM2424136NoneWSW306,562788
06:00 PM2725237NoneWSW266,562787
05:45 PM2825338NoneWSW286,562787
05:30 PM2925337NoneWSW316,562787
05:16 PM3126234NoneWSW196,562787
04:45 PM3729230NoneWSW216,562787
04:31 PM3930231NoneWSW146,562787
04:16 PM4230230NoneW186,562787
04:00 PM4430331NoneWSW186,562786
03:45 PM4631532NoneWSW176,562786
03:30 PM4731532NoneWSW236,562786
03:15 PM5032329NoneW146,562786
03:02 PM5032228NoneW116,562786
02:45 PM5131228NoneWNW116,562786
02:30 PM5131229NoneW156,562785
02:15 PM5331229NoneW176,562785
02:00 PM5532227NoneW106,562785
01:45 PM5532430NoneW186,562785
01:32 PM5532632NoneWSW156,562784
01:01 PM5531634NoneWSW196,562784
12:46 PM5431532NoneW156,562784
12:30 PM56311347NoneW56,562784
12:15 PM52281763NoneENE106,562784
11:45 AM49241876NoneNE66,562784
11:30 AM47251878NoneNE76,562784
11:00 AM43231571NoneNE56,562784
10:16 AM37201785NoneENE56,562784
10:00 AM33271662NoneNNE56,562784
09:45 AM32271150NoneESE46,562783
09:30 AM31261050NoneENE86,562783
09:15 AM3127-425NoneSSW86,562783
09:00 AM2727-426NoneWSW86,562783
08:45 AM2626-130NoneWSW216,562783
08:30 AM2224749NoneSW56,562783
08:15 AM2023-036NoneWSW96,562783
08:00 AM1822038NoneWSW116,562783
07:45 AM1719451NoneW86,562783
07:30 AM1618660NoneW66,562783
07:15 AM1618760NoneSW66,562783
07:00 AM1718866NoneWSW36,562783
06:45 AM17171174NoneW26,562783
06:30 AM16171282NoneWSW36,562783
06:15 AM15161283NoneSSW56,562782
06:00 AM17181484NoneWSW76,562783
05:45 AM17171385NoneWSW66,562783
05:30 AM16171383NoneSSW56,562783
05:15 AM18181484NoneW56,562783
05:00 AM19181484NoneW46,562782
04:45 AM19191483NoneSSW26,562782
04:30 AM20191584NoneNNE16,562782
04:15 AM19171385NoneSSE36,562782
04:00 AM19191480NoneS46,562782
03:45 AM20191480NoneSSW26,562782
03:30 AM21191584NoneNNE36,562782
03:15 AM22191584NoneW26,562782
03:00 AM21191584NoneSSW36,562782
02:45 AM20171486NoneSW56,562782
02:30 AM21181482NoneSSW86,562782
02:15 AM21181484NoneWSW36,562783
02:00 AM21201581NoneSSW36,562783
01:45 AM22201684NoneN06,562783
01:30 AM22191583NoneSSE16,562783
01:15 AM22201684NoneWNW16,562783
01:00 AM22201683Light SnowN16,562783
12:45 AM22191585Light SnowN46,562783
12:30 AM23191685Light SnowNNW26,562784
12:15 AM23201685Light SnowSSW36,562784
11:45 PM23201683Light SnowN26,562783
11:30 PM23191585NoneW26,562784
11:15 PM23201785NoneN16,562783
11:00 PM22201683NoneN26,562783
10:45 PM20191586NoneE36,562783
10:30 PM20191586NoneNNW66,562783
09:30 PM22201686Light SnowNW26,562783
09:16 PM23191686Light SnowN36,562783
09:00 PM22191686Light SnowN46,562784
08:45 PM22201788Light SnowN16,562784

Masonville

Current Conditions

Time: 02/23/2019 08:00 PM MST
Location:
Elevation: FT

Air Temperature: 31°F
Surface Temperature: 31°F
Dew Point Temperature: 1°F
Relative Humidity: 27%
Visibility: 6,562 FT
Pressure: 831 MB
Precipitation: None

Click a photo to enlarge.

313°9 mph
Wind from @ 9 mph

Past 24 Hours

Previous 24h observations for Masonville
Time Surface
(°F)
Air Temp
(°F)
Dew Point
(°F)
Relative
Humidity
Precip. Wind Direction Wind Speed (mph) Visibility (ft) Pressure
(mb)
08:00 PM3131127NoneNW96,562831
07:45 PM3131-026NoneNW146,562831
07:30 PM3131-026NoneNW136,562831
07:15 PM3231-125NoneNNW166,562831
07:00 PM3231-125NoneNW146,562831
06:45 PM3332-025NoneNNW146,562831
06:30 PM3432126NoneNW156,562831
06:15 PM3532126NoneWNW156,562831
06:00 PM3632127NoneNW176,562830
05:45 PM3732227NoneNW136,562830
05:30 PM3833125NoneNW156,562830
05:15 PM3933125NoneWNW136,562830
05:00 PM4134123NoneNW166,562830
04:45 PM4235123NoneWNW166,562830
04:30 PM4435123NoneWNW156,562830
04:15 PM4636223NoneW106,562829
04:00 PM4936224NoneW126,562829
03:45 PM5537223NoneW156,562829
03:30 PM5838222NoneWNW126,562829
03:15 PM6138322NoneWNW146,562829
03:00 PM6238222NoneWNW156,562828
02:45 PM6438222NoneW106,562828
02:30 PM6538121NoneWNW96,562828
02:15 PM6639221NoneNW136,562828
02:00 PM6638221NoneWNW186,562828
01:45 PM6638120NoneWNW186,562827
01:30 PM6738121NoneNW86,562827
01:15 PM6739222NoneWNW116,562827
01:00 PM6937931NoneWSW166,562827
12:45 PM65351747NoneSE76,562827
12:30 PM64341851NoneSE66,562827
12:15 PM62321855NoneSSE76,562827
12:00 PM60332060NoneSSE56,562827
11:45 AM59321957NoneSE56,562827
11:30 AM56311857NoneSSW46,562827
11:15 AM54301861NoneS46,562827
11:00 AM51291965NoneS66,562827
10:45 AM49291865NoneS46,562827
10:30 AM49281868NoneS66,562827
10:15 AM47281867NoneS76,562827
10:00 AM44271870NoneS76,562827
09:45 AM42271869NoneS66,562827
09:30 AM40261770NoneSSW46,562827
09:15 AM37271869NoneSE26,562827
09:00 AM34261769NoneN06,562827
08:45 AM32241569NoneSW26,562827
08:30 AM29221471NoneESE26,562827
08:15 AM27191274NoneNNW46,562827
08:00 AM23171179NoneNNW16,562826
07:45 AM22171178NoneE36,562826
07:30 AM20171180NoneNNW26,562826
07:15 AM20161077NoneWNW36,562826
07:00 AM20171278NoneW26,562826
06:45 AM20151078NoneNE26,562826
06:30 AM21171278NoneE26,562826
06:15 AM20171177NoneSSW26,562826
06:00 AM20181380NoneNW26,562826
05:45 AM20191379NoneN06,562826
05:30 AM21191481NoneNNW26,562826
05:15 AM21201479NoneW26,562826
05:00 AM22201477NoneNW26,562825
04:45 AM23201579NoneN06,562825
04:30 AM23201579NoneS26,562825
04:15 AM24201581NoneENE26,562825
04:00 AM24201681NoneNNW56,562825
03:45 AM24201784NoneNNW46,562825
03:30 AM24211682NoneNW56,562825
03:15 AM25211679NoneNNW26,562826
03:00 AM25211682NoneESE26,562826
02:45 AM25211783NoneNW36,562826
02:30 AM25221781NoneNW36,562826
02:15 AM25221782NoneN06,562826
02:00 AM25211783NoneE16,562826
01:45 AM25231777NoneWNW16,562827
01:30 AM26221780NoneN06,562826
01:15 AM26231777NoneNNE16,562827
01:00 AM26221780NoneN06,562827
12:45 AM26221780NoneE26,562827
12:30 AM26221782NoneE26,562827
12:15 AM26231779NoneN06,562827
12:00 AM26221779NoneWSW16,562827
11:45 PM26221782NoneN06,562827
11:30 PM26221677NoneNW26,562827
11:15 PM26221678NoneN06,562827
11:00 PM26221781NoneN06,562827
10:45 PM26221780NoneN06,562827
10:30 PM25211782NoneE26,562826
10:15 PM26211783NoneNE36,562826
10:00 PM26211784NoneNNE36,562826
09:45 PM26221780NoneNNW16,562827
09:30 PM26211783Light SnowNNW46,562826
09:15 PM27211784Light SnowN06,562827
09:00 PM27211785Light SnowSE26,562827
08:45 PM27211785Light SnowESE16,562827
08:30 PM27211785Light SnowESE16,562827

Time to refresh Minute(s) Second(s)